UAL1584 KEGE-KDEN

Flight info

Callsign UAL1584
Flight time 0h 30m
Altitude 25000
Route GYPSM6 RLG LONGZ LONGZ3
Aircraft B737/M-SDE2E3FGHIRWXY/LB1

Departure

Time 2026-05-09 04:25
Airport Eagle County Regional Airport (KEGE)

Arrival

Time 2026-05-09 04:56
Airport Denver International Airport (KDEN)
Time Latitude Longitude Altitude Speed Heading
2026-05-09 03:56 39.64081 -106.91322 6526 ft 0 kts 172°
2026-05-09 04:15 39.64092 -106.91324 6526 ft 2 kts 170°
2026-05-09 04:15 39.64108 -106.91328 6527 ft 2 kts 167°
2026-05-09 04:16 39.64124 -106.91334 6527 ft 2 kts 152°
2026-05-09 04:16 39.64134 -106.91349 6527 ft 2 kts 90°
2026-05-09 04:16 39.64134 -106.91358 6527 ft 0 kts 84°
2026-05-09 04:21 39.64135 -106.91343 6528 ft 9 kts 82°
2026-05-09 04:21 39.64147 -106.91253 6526 ft 4 kts 72°
2026-05-09 04:21 39.64199 -106.91220 6531 ft 7 kts 44°
2026-05-09 04:22 39.64216 -106.91147 6531 ft 11 kts 82°
2026-05-09 04:22 39.64233 -106.90997 6533 ft 21 kts 82°
2026-05-09 04:22 39.64253 -106.90812 6539 ft 21 kts 81°
2026-05-09 04:22 39.64279 -106.90583 6540 ft 30 kts 81°
2026-05-09 04:23 39.64306 -106.90328 6547 ft 18 kts 82°
2026-05-09 04:23 39.64323 -106.90170 6550 ft 17 kts 82°
2026-05-09 04:23 39.64344 -106.90033 6550 ft 5 kts 51°
2026-05-09 04:23 39.64374 -106.90017 6551 ft 5 kts
2026-05-09 04:24 39.64406 -106.90025 6551 ft 5 kts 348°
2026-05-09 04:24 39.64437 -106.90035 6551 ft 4 kts 335°
2026-05-09 04:24 39.64444 -106.90046 6551 ft 1 kts 295°
2026-05-09 04:24 39.64429 -106.90207 6549 ft 53 kts 262°
2026-05-09 04:25 39.64340 -106.91019 6535 ft 127 kts 262°
2026-05-09 04:25 39.64184 -106.92435 6516 ft 186 kts 263°
2026-05-09 04:25 39.63794 -106.94140 7019 ft 208 kts 235°
2026-05-09 04:25 39.62742 -106.95324 8034 ft 204 kts 214°
2026-05-09 04:26 39.61550 -106.96342 8700 ft 206 kts 214°
2026-05-09 04:26 39.60363 -106.97391 9338 ft 209 kts 228°
2026-05-09 04:26 39.59596 -106.99008 9902 ft 220 kts 256°
2026-05-09 04:26 39.59713 -107.01086 10131 ft 251 kts 295°
2026-05-09 04:27 39.60932 -107.02863 10370 ft 285 kts 328°
2026-05-09 04:27 39.62939 -107.03592 10629 ft 319 kts 355°
2026-05-09 04:27 39.65194 -107.03854 11269 ft 329 kts 346°
2026-05-09 04:27 39.67398 -107.04666 12187 ft 328 kts 337°
2026-05-09 04:28 39.69502 -107.05770 13279 ft 326 kts 335°
2026-05-09 04:28 39.71702 -107.06473 14197 ft 334 kts 352°
2026-05-09 04:28 39.74059 -107.06287 14989 ft 347 kts
2026-05-09 04:28 39.76350 -107.05182 15860 ft 358 kts 26°
2026-05-09 04:29 39.78331 -107.03172 16760 ft 369 kts 44°
2026-05-09 04:29 39.79766 -107.00334 17569 ft 381 kts 59°
2026-05-09 04:29 39.80958 -106.97227 18409 ft 387 kts 60°
2026-05-09 04:29 39.82107 -106.94038 19091 ft 392 kts 62°
2026-05-09 04:30 39.83143 -106.91121 19744 ft 395 kts 61°
2026-05-09 04:30 39.84311 -106.87855 20496 ft 399 kts 61°
2026-05-09 04:30 39.85498 -106.84575 21249 ft 403 kts 60°
2026-05-09 04:30 39.86707 -106.81265 21992 ft 406 kts 60°
2026-05-09 04:31 39.87924 -106.77949 22694 ft 406 kts 60°
2026-05-09 04:31 39.89136 -106.74651 22967 ft 401 kts 59°
2026-05-09 04:31 39.90346 -106.71366 22965 ft 405 kts 59°
2026-05-09 04:31 39.91562 -106.68063 22959 ft 405 kts 60°
2026-05-09 04:32 39.92780 -106.64752 22947 ft 405 kts 60°
2026-05-09 04:32 39.93994 -106.61445 22933 ft 404 kts 60°
2026-05-09 04:32 39.95204 -106.58143 22947 ft 404 kts 60°
2026-05-09 04:32 39.96416 -106.54834 22928 ft 405 kts 60°
2026-05-09 04:33 39.97626 -106.51526 22941 ft 404 kts 60°
2026-05-09 04:33 39.98837 -106.48214 22949 ft 405 kts 60°
2026-05-09 04:33 40.00034 -106.44936 22932 ft 405 kts 60°
2026-05-09 04:33 40.01354 -106.41659 22948 ft 401 kts 55°
2026-05-09 04:34 40.02776 -106.38586 22951 ft 400 kts 53°
2026-05-09 04:34 40.04265 -106.35520 22980 ft 400 kts 52°
2026-05-09 04:34 40.05768 -106.32451 22989 ft 401 kts 52°
2026-05-09 04:34 40.07261 -106.29376 23012 ft 401 kts 53°
2026-05-09 04:35 40.08745 -106.26287 23044 ft 401 kts 53°
2026-05-09 04:35 40.10220 -106.23185 23058 ft 401 kts 53°
2026-05-09 04:35 40.11686 -106.20085 23096 ft 401 kts 53°
2026-05-09 04:35 40.13150 -106.16975 23106 ft 401 kts 53°
2026-05-09 04:36 40.14607 -106.13871 23128 ft 401 kts 53°
2026-05-09 04:36 40.15572 -106.11813 23137 ft 401 kts 53°
2026-05-09 04:36 40.17518 -106.07659 23160 ft 401 kts 53°
2026-05-09 04:36 40.18973 -106.04549 23166 ft 402 kts 53°
2026-05-09 04:37 40.20434 -106.01423 23159 ft 402 kts 53°
2026-05-09 04:37 40.21871 -105.98346 23159 ft 402 kts 53°
2026-05-09 04:37 40.23330 -105.95220 23147 ft 402 kts 54°
2026-05-09 04:37 40.24788 -105.92093 23151 ft 402 kts 54°
2026-05-09 04:38 40.26246 -105.88962 23133 ft 402 kts 54°
2026-05-09 04:38 40.27700 -105.85836 23117 ft 401 kts 54°
2026-05-09 04:38 40.29149 -105.82715 23109 ft 401 kts 54°
2026-05-09 04:38 40.30601 -105.79590 23088 ft 401 kts 54°
2026-05-09 04:39 40.32052 -105.76460 23062 ft 401 kts 54°
2026-05-09 04:39 40.33500 -105.73336 23030 ft 400 kts 54°
2026-05-09 04:39 40.34949 -105.70207 22277 ft 407 kts 54°
2026-05-09 04:39 40.36388 -105.67096 21805 ft 400 kts 54°
2026-05-09 04:40 40.37669 -105.63857 21176 ft 403 kts 68°
2026-05-09 04:40 40.38166 -105.60255 20695 ft 403 kts 87°
2026-05-09 04:40 40.37835 -105.56609 20191 ft 401 kts 99°
2026-05-09 04:40 40.37252 -105.53052 19717 ft 396 kts 101°
2026-05-09 04:41 40.36638 -105.49540 19232 ft 393 kts 102°
2026-05-09 04:41 40.36041 -105.46055 18753 ft 390 kts 101°
2026-05-09 04:41 40.35473 -105.42587 18246 ft 388 kts 101°
2026-05-09 04:41 40.34922 -105.39146 17898 ft 380 kts 100°
2026-05-09 04:42 40.34403 -105.35857 17658 ft 369 kts 99°
2026-05-09 04:42 40.33935 -105.32560 17196 ft 367 kts 98°
2026-05-09 04:42 40.33498 -105.29277 16708 ft 365 kts 98°
2026-05-09 04:42 40.33068 -105.26003 16262 ft 363 kts 98°
2026-05-09 04:43 40.32639 -105.22759 15827 ft 359 kts 98°
2026-05-09 04:43 40.32210 -105.19548 15393 ft 356 kts 98°
2026-05-09 04:43 40.31779 -105.16357 14962 ft 353 kts 98°
2026-05-09 04:43 40.31350 -105.13203 14535 ft 351 kts 98°
2026-05-09 04:44 40.30922 -105.10068 14099 ft 349 kts 98°
2026-05-09 04:44 40.30495 -105.06945 13727 ft 344 kts 98°
2026-05-09 04:44 40.30079 -105.03914 13555 ft 333 kts 98°
2026-05-09 04:44 40.29676 -105.00983 13393 ft 322 kts 98°
2026-05-09 04:45 40.29284 -104.98143 13252 ft 311 kts 98°
2026-05-09 04:45 40.28905 -104.95400 13122 ft 300 kts 98°
2026-05-09 04:45 40.28542 -104.92760 12803 ft 291 kts 98°
2026-05-09 04:45 40.28187 -104.90179 12481 ft 283 kts 98°
2026-05-09 04:46 40.27846 -104.87710 12173 ft 274 kts 98°
2026-05-09 04:46 40.27514 -104.85310 11888 ft 261 kts 99°
2026-05-09 04:46 40.27198 -104.83029 11612 ft 248 kts 98°
2026-05-09 04:46 40.26898 -104.80867 11354 ft 235 kts 98°
2026-05-09 04:47 40.26603 -104.78814 11088 ft 224 kts 104°
2026-05-09 04:47 40.25838 -104.77118 10868 ft 212 kts 141°
2026-05-09 04:47 40.24603 -104.76184 10728 ft 204 kts 164°
2026-05-09 04:47 40.23256 -104.75648 10555 ft 201 kts 168°
2026-05-09 04:48 40.21911 -104.75176 10360 ft 199 kts 169°
2026-05-09 04:48 40.20623 -104.74725 10230 ft 181 kts 169°
2026-05-09 04:48 40.19470 -104.74318 10021 ft 164 kts 169°
2026-05-09 04:48 40.18384 -104.73935 9865 ft 161 kts 169°
2026-05-09 04:49 40.17305 -104.73554 9724 ft 161 kts 169°
2026-05-09 04:49 40.16585 -104.73299 9633 ft 162 kts 168°
2026-05-09 04:49 40.15144 -104.72786 9437 ft 162 kts 168°
2026-05-09 04:49 40.14057 -104.72398 9303 ft 162 kts 168°
2026-05-09 04:50 40.13325 -104.72136 9216 ft 162 kts 167°
2026-05-09 04:50 40.12241 -104.71747 9075 ft 161 kts 167°
2026-05-09 04:50 40.11164 -104.71360 8941 ft 160 kts 167°
2026-05-09 04:50 40.10093 -104.70975 8805 ft 159 kts 167°
2026-05-09 04:51 40.09023 -104.70590 8672 ft 159 kts 167°
2026-05-09 04:51 40.07973 -104.70212 8538 ft 158 kts 167°
2026-05-09 04:51 40.06916 -104.69832 8411 ft 157 kts 167°
2026-05-09 04:51 40.05862 -104.69453 8270 ft 157 kts 167°
2026-05-09 04:52 40.04814 -104.69076 8147 ft 156 kts 167°
2026-05-09 04:52 40.03768 -104.68701 8016 ft 156 kts 166°
2026-05-09 04:52 40.02709 -104.68505 7856 ft 153 kts 182°
2026-05-09 04:52 40.01647 -104.68531 7667 ft 152 kts 183°
2026-05-09 04:53 40.00591 -104.68554 7486 ft 151 kts 183°
2026-05-09 04:53 39.99534 -104.68570 7297 ft 151 kts 182°
2026-05-09 04:53 39.98481 -104.68582 7112 ft 151 kts 182°
2026-05-09 04:53 39.97437 -104.68594 6927 ft 149 kts 181°
2026-05-09 04:54 39.96414 -104.68606 6748 ft 149 kts 181°
2026-05-09 04:54 39.95383 -104.68617 6571 ft 148 kts 181°
2026-05-09 04:54 39.94351 -104.68629 6378 ft 148 kts 181°
2026-05-09 04:54 39.93341 -104.68640 6158 ft 142 kts 180°
2026-05-09 04:55 39.92379 -104.68651 5951 ft 134 kts 180°
2026-05-09 04:55 39.91450 -104.68662 5755 ft 133 kts 179°
2026-05-09 04:55 39.90526 -104.68678 5561 ft 132 kts 179°
2026-05-09 04:55 39.89617 -104.68686 5405 ft 131 kts 179°
2026-05-09 04:56 39.88759 -104.68690 5357 ft 107 kts 179°
2026-05-09 04:56 39.88217 -104.68694 5360 ft 57 kts 181°
2026-05-09 04:56 39.87868 -104.68688 5363 ft 36 kts 169°
2026-05-09 04:56 39.87656 -104.68585 5361 ft 17 kts 152°
2026-05-09 04:57 39.87595 -104.68549 5361 ft 9 kts 156°
2026-05-09 04:57 39.87537 -104.68515 5362 ft 9 kts 156°
2026-05-09 04:57 39.87479 -104.68485 5361 ft 9 kts 171°
2026-05-09 04:57 39.87419 -104.68494 5359 ft 9 kts 181°
2026-05-09 04:58 39.87363 -104.68489 5358 ft 8 kts 188°
2026-05-09 04:58 39.87307 -104.68497 5357 ft 8 kts 183°
2026-05-09 04:58 39.87252 -104.68499 5357 ft 8 kts 180°
2026-05-09 04:58 39.87199 -104.68499 5357 ft 8 kts 180°
2026-05-09 04:59 39.87146 -104.68498 5358 ft 9 kts 180°
2026-05-09 04:59 39.87062 -104.68500 5358 ft 16 kts 180°
2026-05-09 04:59 39.86929 -104.68499 5359 ft 22 kts 179°
2026-05-09 04:59 39.86764 -104.68494 5362 ft 25 kts 179°
2026-05-09 05:00 39.86576 -104.68489 5363 ft 16 kts 181°
2026-05-09 05:00 39.86570 -104.68490 5363 ft 0 kts 182°
2026-05-09 05:00 39.86568 -104.68490 5363 ft 2 kts 180°
2026-05-09 05:00 39.86519 -104.68486 5365 ft 12 kts 177°
2026-05-09 05:01 39.86446 -104.68490 5365 ft 4 kts 161°
2026-05-09 05:01 39.86422 -104.68479 5364 ft 4 kts 170°
2026-05-09 05:01 39.86359 -104.68499 5367 ft 16 kts 195°
2026-05-09 05:01 39.86221 -104.68508 5362 ft 24 kts 177°
2026-05-09 05:02 39.86140 -104.68432 5364 ft 11 kts 92°
2026-05-09 05:02 39.86139 -104.68331 5367 ft 11 kts 87°
2026-05-09 05:02 39.86139 -104.68233 5367 ft 11 kts 91°
2026-05-09 05:02 39.86138 -104.68133 5367 ft 13 kts 90°
2026-05-09 05:03 39.86137 -104.67953 5370 ft 27 kts 91°
2026-05-09 05:03 39.86136 -104.67695 5371 ft 12 kts 90°
2026-05-09 05:03 39.86136 -104.67690 5371 ft 0 kts 90°
2026-05-09 05:03 39.86135 -104.67671 5372 ft 10 kts 92°
2026-05-09 05:04 39.86133 -104.67482 5373 ft 29 kts 89°
2026-05-09 05:04 39.86131 -104.67203 5374 ft 30 kts 94°
2026-05-09 05:04 39.86014 -104.67066 5377 ft 14 kts 182°
2026-05-09 05:04 39.85950 -104.67083 5376 ft 5 kts 176°
2026-05-09 05:05 39.85937 -104.67083 5378 ft 0 kts 180°
2026-05-09 05:05 39.85933 -104.67083 5377 ft 0 kts 180°